Weather History for KSMQ - June, 2013

Change the Weather History Date:

Tuesday, June 4, 2013

  Actual Average Record
Temperature  
Mean Temperature 65 °F -  
Max Temperature 75 °F 76 °F 93 °F (1943)
Min Temperature 52 °F 52 °F 41 °F (1964)
Growing Degree Days 15 (Base 50)    
Moisture  
Dew Point 44 °F    
Average Humidity 49    
Maximum Humidity 86    
Minimum Humidity 27    
Precipitation  
Precipitation 0.00 in - - ()
Sea Level Pressure  
Sea Level Pressure 30.01 in    
Wind  
Wind Speed 6 mph (NW)    
Max Wind Speed 12 mph    
Max Gust Speed 18 mph    
Visibility 10 miles    
Events      
Averages and records for this station are not official NWS values.
T = Trace of Precipitation, MM = Missing Value Source: NWS Daily Summary

Daily Weather History Graph

Daily Weather History Graph

Search for Another Location

Airport or City:

Trip Planner

Search our weather history database for the weather conditions in past years. The results will help you decide how hot, cold, wet, or windy it might be!

Date:

Astronomy

Jun. 04, 2013 Rise Set
Actual Time 5:28 AM EDT 8:25 PM EDT
Civil Twilight 4:56 AM EDT 8:58 PM EDT
Nautical Twilight 4:14 AM EDT 9:40 PM EDT
Astronomical Twilight 3:26 AM EDT 10:28 PM EDT
Moon 2:58 AM EDT (6/4) 4:51 PM EDT (6/4)
Length of Visible Light 16h 02m
Length of Day
14h 56m
Waning Crescent, 14% of the Moon is Illuminated
Jun 4
Waning Crescent
Jun 8
New
Jun 16
First Quarter
Jun 23
Full
Jun 30
Last Quarter

Hourly Weather History & Observations

Time (EDT) Temp. Dew Point Humidity Pressure Visibility Wind Dir Wind Speed Gust Speed Precip Events Conditions
12:53 AM 64.9 °F 44.1 °F 47% 29.90 in 10.0 mi North 5.8 mph - N/A   Mostly Cloudy
1:53 AM 62.1 °F 43.0 °F 50% 29.92 in 10.0 mi NW 3.5 mph - N/A   Clear
2:53 AM 62.1 °F 44.1 °F 52% 29.94 in 10.0 mi NNW 10.4 mph 18.4 mph N/A   Mostly Cloudy
3:53 AM 60.1 °F 43.0 °F 53% 29.94 in 10.0 mi NNW 9.2 mph - N/A   Clear
4:53 AM 57.9 °F 44.1 °F 60% 29.96 in 10.0 mi NNW 6.9 mph - N/A   Clear
5:53 AM 55.0 °F 45.0 °F 69% 29.98 in 10.0 mi Calm Calm - N/A   Clear
6:53 AM 57.9 °F 44.1 °F 60% 30.00 in 10.0 mi NNW 4.6 mph - N/A   Clear
7:53 AM 60.1 °F 43.0 °F 53% 30.01 in 10.0 mi North 9.2 mph 16.1 mph N/A   Clear
8:53 AM 62.1 °F 42.1 °F 48% 30.04 in 10.0 mi NNW 9.2 mph - N/A   Clear
9:53 AM 64.0 °F 44.1 °F 48% 30.04 in 10.0 mi Variable 6.9 mph - N/A   Clear
10:53 AM 66.0 °F 44.1 °F 45% 30.04 in 10.0 mi NW 8.1 mph - N/A   Clear
11:53 AM 68.0 °F 44.1 °F 42% 30.05 in 10.0 mi WNW 6.9 mph - N/A   Clear
12:53 PM 71.1 °F 45.0 °F 39% 30.04 in 10.0 mi WNW 11.5 mph 18.4 mph N/A   Clear
1:53 PM 72.0 °F 43.0 °F 35% 30.02 in 10.0 mi WNW 8.1 mph - N/A   Clear
2:53 PM 73.9 °F 45.0 °F 35% 30.01 in 10.0 mi Variable 4.6 mph - N/A   Clear
3:53 PM 75.0 °F 44.1 °F 33% 30.00 in 10.0 mi Variable 4.6 mph - N/A   Clear
4:53 PM 75.9 °F 39.9 °F 27% 30.00 in 10.0 mi NNW 8.1 mph - N/A   Clear
5:53 PM 75.9 °F 43.0 °F 31% 30.00 in 10.0 mi NNW 9.2 mph - N/A   Clear
6:53 PM 73.9 °F 42.1 °F 32% 30.02 in 10.0 mi NW 5.8 mph - N/A   Clear
7:53 PM 70.0 °F 44.1 °F 39% 30.03 in 10.0 mi NW 4.6 mph - N/A   Clear
8:53 PM 63.0 °F 46.9 °F 56% 30.05 in 10.0 mi Calm Calm - N/A   Clear
9:53 PM 59.0 °F 48.0 °F 67% 30.09 in 10.0 mi Calm Calm - N/A   Clear
10:53 PM 55.0 °F 48.9 °F 80% 30.11 in 10.0 mi Calm Calm - N/A   Clear
11:53 PM 52.0 °F 48.0 °F 86% 30.12 in 10.0 mi Calm Calm - N/A   Clear